Location: Alafon
(8.4500°N, 4.2333°E)
Time: 08:37:28
(UTC+00:00)

SR - Pass Details

Date: 07 August 2021
Orbit: 581 x 874 km, 66.7° (Epoch: 19 September)

Event Time Altitude Azimuth Distance (km) Brightness Sun altitude
Rises 02:00:00 0° 171° (S) 3,427 - -49.1°
Reaches altitude 10° 02:03:04 10° 156° (SSE) 2,509 - -48.5°
Maximum altitude 02:07:21 21° 108° (ESE) 1,850 - -47.7°
Exits shadow 02:11:10 12° 64° (ENE) 2,385 ? -46.9°
Drops below altitude 10° 02:11:38 10° 61° (ENE) 2,504 ? -46.8°
Sets 02:14:40 0° 46° (NE) 3,419 ? -46.2°
